CAPE
18 21 62 39 48 71 21 2 4 0 78 55 0 0 3 0 0 0 0 0 20 0 0 0 0 0 0 0 0 0 0 0 0 0 0 0 0 0 0 0 0 0 0 0
9 38 55 43 54 66 8 0 14 32 41 5 0 0 7 10 5 1 15 0 0 35 42 1 0 0 0 0 0 0 0 0 0 0 0 0 0 0 0 0 0 0 0 0
6 61 69 64 92 45 3 15 14 37 46 4 7 0 4 17 8 14 12 1 10 34 38 48 20 0 0 0 0 1 0 0 0 0 0 0 0 1 0 0 0 0 0 0
2 50 72 90 118 18 9 15 3 0 0 0 1 6 12 10 8 6 48 16 21 7 2 4 26 16 8 14 0 0 3 0 0 0 0 0 2 8 0 0 0 0 0 0
3 70 47 106 73 38 24 0 0 10 0 0 1 2 6 10 6 4 6 10 6 0 0 0 3 4 3 16 2 46 10 9 0 4 0 4 27 0 0 0 0 0 0 0
0 93 59 106 40 51 6 0 4 0 2 2 1 0 0 1 11 12 0 5 8 27 0 0 19 21 0 5 20 16 10 10 0 1 10 36 1 0 0 0 0 0 0 0
2 58 23 20 43 37 0 1 4 0 0 1 3 0 1 0 1 15 9 0 40 0 41 10 2 3 24 19 0 0 0 2 1 0 0 0 0 0 0 0 0 0 0 3
39 64 36 42 51 42 2 0 6 0 0 1 41 17 0 8 9 5 2 31 2 26 62 24 2 0 3 0 3 18 8 0 0 0 0 0 0 0 0 0 0 0 0 0
92 101 49 54 56 56 9 9 1 0 0 0 5 4 7 2 4 3 3 0 0 89 0 0 0 0 0 0 0 7 0 0 0 0 0 0 0 0 0 0 0 0 0 0
68 45 48 54 56 65 2 2 0 1 0 0 0 6 3 3 14 0 3 1 0 28 10 0 0 2 0 0 0 0 0 7 0 0 0 0 0 0 0 0 0 0 0 0
28 25 42 45 60 65 4 0 13 9 16 16 0 12 33 2 2 1 0 9 2 16 18 1 0 0 0 0 0 0 0 0 0 0 0 0 0 0 0 0 0 0 0 0
17 25 36 41 61 82 23 0 16 0 0 0 0 0 0 0 0 0 0 4 2 23 0 0 0 0 0 0 0 0 0 0 0 0 0 0 0 0 0 0 0 0 0 0
6 30 29 31 46 53 43 12 14 5 0 0 2 0 0 0 0 0 0 3 35 0 0 0 0 1 0 0 0 0 0 0 0 0 0 0 0 0 0 0 0 0 0 0
27 23 29 57 42 21 22 13 34 3 2 0 0 0 0 0 0 3 0 0 0 13 0 0 0 0 0 0 0 0 0 0 0 0 0 0 0 0 0 0 0 0 0 0
19 31 27 18 21 35 25 9 4 18 0 1 3 0 0 0 1 2 2 3 4 7 0 0 0 0 0 0 0 0 0 0 0 0 0 0 0 0 0 0 0 0 0 0
2 1 53 66 62 7 0 0 0 1 18 10 2 1 2 1 0 0 0 37 8 2 0 4 1 0 0 0 0 0 0 0 0 0 0 0 0 0 0 0 0 0 0 0
4 3 1 49 23 2 0 1 0 0 0 0 0 1 1 2 1 0 2 2 2 0 0 6 0 0 0 2 0 0 0 0 0 0 0 0 0 0 0 0 0 0 0 0
0 5 11 8 4 0 1 0 0 0 0 2 1 0 3 2 0 1 3 1 0 0 0 0 0 0 0 0 0 0 0 0 0 0 0 0 0 0 0 0 0 0 0 0
0 1 5 3 4 1 3 1 0 0 0 2 1 0 0 1 0 0 0 2 1 3 0 0 0 0 0 0 0 0 0 0 0 0 0 0 0 0 0 0 0 0 0 0
0 1 0 0 0 1 5 3 2 0 0 3 2 1 1 5 0 1 0 0 1 1 0 0 0 0 0 0 0 0 0 0 0 0 0 0 0 0 0 0 0 0 0 0
0 1 35 0 0 0 2 3 2 1 7 0 6 1 5 2 1 2 0 0 0 0 0 0 0 0 0 0 0 0 0 0 0 0 0 0 0 0 0 0 0 0 0 0
0 0 0 0 0 0 19 11 1 1 6 4 2 5 4 0 10 1 2 0 0 5 0 0 0 0 0 0 0 0 0 0 0 0 0 0 0 0 0 0 0 0 0 0
5 4 3 8 0 0 0 1 12 1 2 6 4 6 0 2 11 2 2 0 0 0 0 0 0 0 0 0 0 0 0 0 0 0 0 0 0 0 0 0 0 0 0 0
30 10 0 0 0 0 0 0 0 0 6 3 10 8 13 7 0 1 0 0 0 0 0 0 0 0 0 0 0 0 0 0 0 0 0 0 0 0 0 0 0 0 0 0
6 0 1 0 0 3 2 0 1 3 0 4 8 0 0 0 0 0 0 0 0 0 0 1 0 0 0 0 0 0 0 0 0 0 0 0 0 0 0 0 0 0 0 0
0 0 9 0 3 3 6 6 8 3 4 6 0 0 0 0 0 0 0 0 0 0 0 0 0 0 0 0 0 0 0 0 0 0 0 0 0 0 0 0 0 0 0 0
0 0 0 0 4 1 1 0 3 3 17 1 2 0 0 2 1 0 0 1 0 1 0 0 0 0 0 0 0 0 0 0 0 0 0 0 0 0 0 0 0 0 0 0
CIN
0 -47 -68 -123 0 -4 -11 -2 -2 0 -3 -13 0 0 0 0 0 0 0 0 -22 0 0 0 0 0 0 0 0 0 0 0 0 0 0 0 0 0 0 0 0 0 0 0
0 -36 0 0 -1 0 -4 0 -4 -31 -8 0 0 0 0 -2 -1 -2 -4 0 0 -7 -4 0 0 0 0 0 0 0 0 0 0 0 0 0 0 0 0 0 0 0 0 0
0 -1 0 0 -1 -1 -2 -5 0 0 -1 0 0 0 0 0 -2 -4 -1 -3 -4 -5 -8 -11 -1 0 0 0 0 -12 0 0 0 0 0 0 0 -5 0 -15 0 0 0 0
0 0 0 -1 0 -23 -1 -16 -3 0 0 0 0 0 0 0 -1 -4 -1 0 -3 -1 -3 -2 -2 -6 -19 -25 0 -51 -3 0 0 0 0 0 -29 -36 0 -1 0 0 0 0
0 -10 -1 -1 0 -5 -6 0 0 -8 0 0 0 0 0 0 0 -2 0 -1 -5 0 0 0 -2 -5 -2 -16 -5 -4 -39 -2 -7 -16 0 -14 -4 0 0 0 0 0 0 0
0 -7 -2 -2 -4 -4 -7 -2 -9 0 -8 -1 0 0 0 0 -2 -5 0 0 0 -2 0 0 -42 -51 0 -47 -17 -4 -17 -2 0 -1 -10 -8 -7 0 0 0 0 0 0 0
-2 0 0 0 0 -2 -7 -14 -17 0 -3 -4 -1 0 0 0 0 -1 -4 0 -5 0 -60 -95 -64 -27 -11 -28 -8 0 -5 -6 0 0 0 0 0 0 0 0 0 0 0 -17
0 0 -2 0 -2 -4 -13 -8 -27 0 0 -4 -4 -12 0 0 0 0 -1 -6 -5 -26 -32 -28 -9 -2 -9 -7 -15 -3 -12 -1 0 0 0 0 0 0 0 0 0 0 0 0
0 -1 -7 -7 -12 -11 -33 -32 -29 0 -1 0 -2 -14 -53 0 0 0 0 0 0 -27 0 0 0 0 0 0 0 -6 0 0 0 0 0 0 0 0 0 0 0 0 0 0
0 -4 -6 -7 -13 -14 -21 -27 -8 -5 0 0 0 -10 -9 -28 0 0 0 -1 0 -10 -3 0 0 -7 0 0 0 0 0 0 0 0 0 0 0 0 0 0 0 0 0 0
-2 -2 -3 -10 -10 -14 -2 -8 -34 -24 -3 -14 0 -29 -3 0 0 0 0 -4 -5 -4 0 -13 0 0 0 0 0 0 0 0 0 0 0 0 0 0 0 0 0 0 0 0
-4 -1 -1 -10 -7 -10 -22 0 -27 0 0 0 0 0 0 0 0 0 0 -3 -19 -9 0 0 0 0 0 0 0 0 0 0 0 0 0 0 0 0 0 0 0 0 0 0
-2 -6 0 -1 -4 -3 -9 -12 -24 -4 0 0 0 0 0 0 0 0 0 -1 0 0 0 0 0 0 0 0 0 0 0 0 0 0 0 0 0 0 0 0 0 0 0 0
0 0 -1 0 0 -1 -3 -3 -10 -6 -3 0 0 0 0 0 0 0 0 0 0 0 0 0 0 0 0 0 0 0 0 0 0 0 0 0 0 0 0 0 0 0 0 0
0 -1 0 0 0 0 -1 -11 -6 -17 -6 -1 0 0 0 0 0 0 0 0 0 0 0 0 0 0 0 0 0 0 0 0 0 0 0 0 0 0 0 0 0 0 0 0
0 -15 -3 -2 -3 -2 0 0 0 -56 -2 -4 -7 0 0 0 0 0 0 0 0 0 0 0 0 0 0 0 0 0 0 0 0 0 0 0 0 0 0 0 0 0 0 0
0 0 -14 -3 -9 -5 0 0 0 0 0 0 0 0 0 0 0 0 0 0 0 0 0 0 0 0 0 0 0 0 0 0 0 0 0 0 0 0 0 0 0 0 0 0
0 0 0 -1 0 -1 0 0 0 0 -1 0 0 0 0 0 0 0 0 0 0 0 0 0 0 0 -1 0 0 0 0 0 0 0 0 0 0 0 0 0 0 0 0 0
0 -24 -9 -1 0 0 0 0 0 0 0 0 0 0 0 0 0 0 0 0 0 0 0 0 0 0 0 0 0 0 0 0 0 0 0 0 0 0 0 0 0 0 0 0
0 0 -1 -2 0 -1 0 0 0 0 0 0 0 0 0 0 0 0 0 0 0 0 0 0 0 0 0 0 0 0 0 0 0 0 0 0 0 0 0 0 0 0 0 0
0 -18 -9 0 0 0 0 -2 0 0 0 0 0 0 0 0 0 0 0 0 0 0 0 0 0 0 0 0 0 0 0 0 0 0 0 0 0 0 0 0 0 0 0 0
0 0 0 0 0 -21 -7 -6 -5 0 0 0 0 0 0 0 0 0 0 0 0 0 0 0 0 0 0 0 0 0 0 0 0 0 0 0 0 0 0 0 0 0 0 0
-82 -42 -13 -18 0 0 -2 -6 -9 -23 -3 0 0 0 0 -4 -12 -6 0 0 0 0 0 0 0 0 0 0 0 0 0 0 0 0 0 0 0 0 0 0 0 0 0 0
-30 -12 0 0 -2 0 0 0 0 0 -4 -3 0 0 -2 -5 -8 -9 0 0 0 0 0 0 0 0 0 0 0 0 0 0 0 0 0 0 0 0 0 0 0 0 0 0
-47 0 -1 -2 -12 -12 -3 0 -1 -10 -4 0 -1 -2 0 0 0 0 0 0 0 0 0 -9 0 0 0 0 0 0 0 0 0 0 0 0 0 0 0 0 0 0 0 0
0 0 -2 0 0 -1 -1 -7 -2 -18 -23 -27 0 0 0 0 0 0 0 0 0 0 0 0 0 0 0 0 0 0 0 0 0 0 0 0 0 0 0 0 0 0 0 0
0 0 -1 0 -3 -2 -7 -2 -13 -26 -9 -14 -15 0 0 -1 -7 0 0 -8 0 0 0 0 0 0 0 0 0 0 0 0 0 0 0 -1 0 0 0 0 0 0 0 0
Wind_Speed
26 25 24 28 31 32 24 7 7 5 14 14 2 8 12 14 20 22 8 9 10 13 17 21 22 32 24 20 24 30 20 1 6 18 18 23 26 27 22 8 6 7 5 7
25 16 22 28 32 36 13 8 4 3 10 11 7 0 6 17 19 20 9 17 20 14 15 15 22 26 20 13 29 28 20 7 3 8 10 13 26 18 16 16 1 18 9 5
23 16 22 27 34 34 13 5 7 4 4 3 5 8 4 9 17 16 13 8 8 11 8 7 7 20 15 24 23 21 21 12 24 23 22 8 19 24 24 18 13 6 20 7
22 18 23 29 34 34 9 4 4 7 8 10 5 9 6 13 11 12 20 14 14 19 14 12 9 13 14 11 23 21 20 27 18 22 11 10 21 18 24 26 24 17 16 16
20 20 27 32 35 32 3 6 6 4 6 11 17 10 4 12 20 15 11 14 19 16 15 18 12 3 4 16 12 16 9 13 16 13 17 17 13 25 27 28 21 25 12 13
15 19 30 33 34 27 4 3 2 6 6 7 8 6 14 7 15 14 26 27 16 21 25 11 4 4 6 2 7 12 15 10 17 20 15 10 13 28 23 22 22 18 19 9
19 20 20 27 32 27 4 3 5 5 3 7 9 9 10 18 19 19 22 26 23 20 7 8 5 5 7 10 14 6 14 9 7 5 6 11 9 11 18 9 12 16 10 10
22 24 25 29 32 27 3 3 4 3 2 4 7 8 7 8 15 22 18 15 25 4 7 5 0 1 3 3 22 19 12 7 2 6 12 2 9 11 20 9 13 11 6 3
18 23 27 27 27 26 2 1 4 4 5 6 10 10 7 4 3 11 12 17 11 8 4 5 10 5 3 3 4 9 10 6 7 5 5 14 7 6 6 4 6 5 6 6
15 23 24 25 24 24 5 1 3 4 2 3 3 3 4 4 3 3 2 8 11 13 11 4 6 9 8 6 6 2 7 3 6 5 4 6 8 5 15 6 7 2 5 7
16 19 18 21 22 21 12 2 3 4 3 2 6 5 4 3 4 3 4 1 4 3 14 9 4 4 7 3 5 14 8 8 4 3 3 8 8 4 11 10 4 8 8 8
18 15 15 22 22 21 14 2 4 3 4 0 2 3 1 3 4 3 2 9 8 7 5 4 5 3 5 10 7 4 8 9 8 9 8 7 1 6 8 9 7 5 10 11
9 17 12 11 13 18 14 3 4 4 2 2 2 4 6 7 3 2 3 4 6 3 4 4 4 5 5 6 5 7 6 10 5 8 8 7 4 6 5 8 8 9 9 12
11 11 13 14 14 15 12 2 3 4 2 2 4 5 3 7 7 11 9 9 11 10 2 2 2 3 2 4 5 6 6 15 10 3 3 6 5 8 8 8 8 13 10 9
3 9 15 17 17 17 9 1 2 1 4 2 2 2 5 3 3 10 18 16 12 7 2 1 4 2 3 2 1 4 5 8 11 7 8 8 5 9 10 12 11 11 15 11
19 13 13 13 14 19 4 1 2 1 2 2 3 2 1 3 4 4 5 15 12 6 4 2 3 3 4 1 2 7 1 2 6 6 8 7 11 10 9 12 11 10 10 10
18 15 11 13 21 5 3 2 1 10 6 3 2 2 2 4 2 3 3 3 2 1 3 2 4 3 4 3 3 8 3 6 5 6 14 11 10 10 9 11 10 11 10 8
19 19 19 18 16 8 3 3 5 2 4 1 2 2 3 4 1 1 3 1 1 2 2 2 2 4 4 3 7 12 8 8 9 9 8 11 12 10 8 11 10 11 9 8
7 12 11 4 4 2 0 3 5 2 2 2 2 3 3 3 2 2 2 0 2 2 1 3 2 2 3 5 5 13 13 7 10 12 14 14 14 11 9 11 8 9 6 7
10 3 2 2 3 11 7 1 1 1 1 2 2 1 1 1 1 2 1 1 2 1 3 3 3 3 5 4 3 10 11 11 11 13 8 9 9 9 7 7 8 8 8 7
3 3 1 4 16 2 1 3 1 1 3 2 1 2 2 2 2 2 2 1 2 2 1 4 3 1 4 9 9 8 8 8 9 10 10 8 8 8 8 7 6 7 8 8
1 2 4 5 5 4 3 3 4 2 2 1 0 2 2 1 2 2 1 2 2 2 4 5 5 5 10 15 13 11 11 13 13 12 12 10 11 8 8 7 6 8 10 9
2 2 3 3 3 6 3 2 1 2 2 3 3 2 2 2 3 2 2 2 1 1 4 2 3 6 10 12 10 10 10 12 13 11 9 9 9 10 10 9 8 9 10 8
2 1 4 3 3 3 1 3 4 4 0 4 2 1 4 2 3 1 4 2 2 3 2 3 2 11 12 11 9 10 8 9 9 8 8 9 8 9 8 7 6 7 9 8
3 4 2 2 2 3 2 3 3 4 2 2 1 2 3 2 3 2 3 3 1 2 4 3 4 9 11 11 9 8 8 8 7 7 8 8 8 7 7 6 6 6 6 7
4 4 1 1 1 2 2 2 3 1 1 3 3 2 3 1 3 2 2 2 3 3 1 4 8 8 8 9 10 7 7 8 7 7 8 8 8 7 6 5 5 6 8 8
3 2 0 3 2 2 2 2 3 3 3 1 1 2 4 2 0 3 2 1 2 3 4 3 6 9 9 10 10 8 8 7 7 6 6 5 6 7 6 7 5 7 7 7
Wind_Direction
298 287 217 199 189 182 163 153 170 185 152 210 207 207 209 200 210 234 269 180 189 204 208 208 188 213 207 193 188 199 204 191 206 213 212 200 204 208 201 188 189 225 156 247
304 266 195 184 183 170 149 169 124 139 156 221 191 147 232 205 200 206 203 204 209 214 203 211 219 210 216 233 189 197 185 204 113 336 285 225 202 207 213 223 147 218 192 231
305 229 190 187 179 164 157 130 152 163 182 281 207 205 237 192 216 191 199 256 199 198 221 225 248 233 214 217 200 190 190 209 209 211 223 147 203 196 205 205 223 192 225 187
306 214 191 185 176 163 160 120 174 165 170 194 183 174 231 197 187 207 193 222 201 194 206 244 250 247 239 220 214 203 187 220 215 233 249 228 220 212 209 210 220 209 217 222
294 209 191 178 169 170 108 123 142 164 143 142 184 179 222 211 209 176 218 222 217 207 202 195 208 184 262 222 238 217 142 242 223 219 221 241 236 229 217 221 221 227 205 214
263 199 177 171 163 177 120 199 140 115 167 154 165 199 214 231 220 220 206 208 216 214 222 200 190 123 297 213 190 237 184 224 193 224 207 204 230 225 211 222 226 210 213 201
211 172 158 157 167 185 103 129 102 96 164 171 184 173 202 237 246 243 210 211 211 222 118 97 41 46 252 224 242 247 203 213 174 177 113 212 254 202 228 217 237 222 203 179
175 171 171 179 180 185 115 154 111 126 153 147 147 178 170 222 250 253 271 232 217 211 168 110 116 338 28 319 228 197 239 144 122 160 200 14 260 230 195 169 246 240 170 184
172 175 175 177 177 187 150 68 112 86 100 228 186 175 174 150 256 207 239 271 273 178 121 159 193 199 139 188 255 138 104 151 136 151 167 210 195 222 119 102 268 217 200 175
173 176 175 179 178 186 165 73 80 99 131 317 307 182 171 149 285 235 204 211 230 234 203 153 173 204 166 184 186 189 118 72 160 140 155 274 249 171 107 126 231 56 127 138
179 170 188 177 178 185 184 132 150 131 130 344 30 13 134 152 151 304 338 79 194 280 214 195 143 175 177 163 220 191 187 154 150 134 138 258 206 151 138 201 182 125 98 110
165 180 192 187 182 181 169 128 130 85 91 100 8 349 61 35 158 164 259 328 295 189 223 144 131 179 163 166 198 202 186 168 157 186 199 238 143 147 148 144 142 130 114 129
133 190 173 178 186 182 176 105 140 82 101 301 185 190 134 106 151 154 161 234 263 254 235 138 158 200 154 170 225 147 204 170 151 151 201 207 193 74 114 131 132 121 115 121
119 139 162 165 153 155 181 146 132 119 128 219 244 131 169 144 175 195 212 233 281 296 348 107 134 160 69 209 175 147 184 170 160 186 252 115 71 140 139 104 107 105 99 113
130 168 168 168 167 169 173 123 18 172 161 231 294 94 169 197 217 259 222 224 231 252 110 199 153 160 123 283 74 158 185 163 167 192 177 131 155 132 123 114 115 119 119 114
33 30 189 168 156 126 89 87 224 152 85 235 265 332 260 293 267 295 333 223 220 200 169 155 163 106 89 206 198 279 157 40 135 151 156 133 142 135 136 123 117 109 110 122
71 52 70 128 139 116 134 193 169 177 113 203 184 252 195 254 283 27 300 303 78 126 153 148 133 149 131 167 204 184 197 205 135 128 121 127 146 142 129 122 116 111 103 108
93 81 66 83 76 60 48 344 33 53 102 248 243 243 210 199 161 225 253 119 73 3 102 31 131 117 142 182 242 168 171 116 113 121 107 116 114 102 107 123 118 109 114 113
142 120 120 81 40 43 325 322 17 1 153 218 215 200 207 208 73 104 251 153 122 39 284 117 100 137 200 211 191 146 142 138 137 109 108 116 124 126 117 114 113 117 127 113
173 214 215 123 200 154 156 19 219 156 219 239 267 107 36 301 67 67 50 289 108 101 296 96 96 207 230 271 160 117 117 121 115 100 100 111 104 115 116 122 128 135 132 133
213 220 101 50 128 106 223 207 289 201 197 200 285 47 126 14 67 68 347 102 263 121 238 126 175 199 177 130 113 102 97 100 96 88 80 99 111 115 109 98 117 128 120 108
318 250 271 141 196 214 205 202 169 211 143 112 27 68 59 46 43 93 311 337 330 108 198 146 179 207 114 98 90 78 82 85 85 85 89 80 79 71 80 65 92 99 107 108
155 192 356 48 307 21 328 290 41 45 105 157 166 111 145 240 208 171 153 140 294 70 43 178 232 136 120 116 111 87 80 83 83 85 87 87 81 64 72 82 58 88 101 110
37 97 359 61 10 47 351 333 334 302 58 106 183 162 164 186 63 344 74 297 59 360 68 249 191 136 129 117 101 94 100 102 109 113 101 96 94 97 84 88 101 108 127 124
51 41 36 98 194 218 254 233 255 276 120 130 297 8 84 43 63 58 101 27 250 227 222 177 130 118 118 119 117 119 123 119 108 106 109 118 120 112 111 121 131 129 127 120
80 31 44 250 138 305 349 320 333 0 357 352 21 66 45 0 129 126 204 195 202 256 39 117 117 112 107 111 115 111 111 115 113 114 131 137 135 126 117 124 127 137 147 139
96 107 23 276 85 51 360 286 324 320 57 1 0 112 200 130 201 196 190 174 133 100 71 54 105 122 118 116 122 129 129 120 119 120 116 117 114 118 129 130 127 133 122 126